Temperature
8 9 9 9 9 9 8 8 8 9 10 11 11 11 11 12 12 12 12 11 11 11 10 10 10 10 10 10 10 10 11 10 11 11 11 11 11 11 11 11 11 10 10 10
7 8 9 8 9 9 9 9 9 9 9 11 11 11 11 11 11 11 11 10 10 10 10 9 9 9 9 9 9 9 10 10 10 10 10 10 10 10 10 10 10 10 10 10
6 7 7 7 8 9 9 9 9 9 9 10 10 10 10 11 11 10 10 9 9 9 8 8 8 8 8 8 8 9 9 9 9 9 9 9 9 9 9 9 9 9 9 9
5 5 5 7 10 10 10 10 10 10 10 10 10 10 10 10 10 9 9 9 8 8 8 8 8 8 8 8 8 8 8 8 8 8 8 8 8 9 9 9 9 9 8 8
4 4 6 8 9 10 9 9 9 9 9 9 10 9 9 9 9 8 8 8 7 7 7 7 7 7 7 7 7 7 7 7 7 7 7 7 8 8 8 8 8 8 8 7
4 4 5 8 9 10 9 7 8 8 8 8 8 6 7 8 7 7 7 7 6 6 6 6 6 6 6 6 6 6 6 6 6 6 7 7 7 7 7 7 7 7 7 7
4 4 5 8 9 9 6 7 8 8 8 7 7 6 7 7 6 6 6 6 6 6 5 5 5 5 5 5 5 5 5 5 6 6 6 6 6 6 6 6 6 6 6 6
4 4 5 8 8 7 7 8 8 8 7 7 7 7 6 6 6 6 5 5 5 5 5 5 5 5 5 4 4 5 5 5 5 5 5 5 5 5 5 5 5 5 5 5
5 6 7 8 8 8 8 7 7 7 7 6 6 6 5 5 5 5 5 4 4 4 4 4 4 4 4 4 4 4 4 4 4 4 4 4 4 5 5 5 4 4 4 4
6 6 7 8 8 8 7 7 7 6 6 6 5 5 5 4 4 4 4 4 3 3 3 3 3 3 3 3 3 3 3 3 3 3 4 4 4 4 4 4 4 4 4 4
5 6 6 7 7 7 6 6 6 5 5 5 5 4 4 4 4 3 3 3 3 2 2 2 2 2 2 2 2 2 2 2 2 2 2 3 3 3 3 3 3 3 3 3
5 6 6 6 6 6 5 5 5 4 4 4 4 3 3 3 3 2 2 2 2 2 1 1 1 1 1 1 1 1 1 1 1 1 2 2 2 2 2 2 2 2 2 2
6 6 6 6 5 5 4 4 4 4 3 3 2 2 2 1 1 1 1 1 1 0 0 0 0 0 0 0 0 0 0 1 1 1 1 1 1 1 2 2 1 1 1 1
5 5 4 4 4 4 3 3 3 2 2 2 1 1 1 0 0 0 0 -0 -0 -1 -1 -1 -1 -1 -1 -1 -1 -0 -0 -0 -0 -0 0 0 1 1 1 1 1 1 1 1
4 3 3 3 3 2 2 2 2 1 1 0 0 -0 -1 -1 -1 -1 -1 -1 -1 -1 -1 -1 -1 -1 -1 -1 -1 -1 -1 -1 -1 -1 -1 -0 -0 -0 -0 -0 -0 -0 -0 -0
2 2 2 2 1 1 1 0 0 -0 -1 -1 -1 -1 -2 -2 -2 -2 -2 -2 -2 -2 -2 -2 -2 -2 -2 -2 -2 -2 -1 -2 -1 -1 -1 -1 -1 -1 -1 -1 -1 -1 -1 -1
1 0 0 0 -0 -0 -1 -1 -1 -2 -2 -2 -2 -2 -2 -3 -3 -3 -3 -3 -3 -3 -3 -3 -3 -3 -3 -3 -2 -2 -2 -2 -2 -2 -2 -2 -2 -2 -2 -2 -2 -2 -2 -2
-0 -0 -1 -1 -1 -2 -2 -2 -2 -3 -3 -3 -3 -3 -3 -4 -4 -4 -4 -3 -4 -3 -3 -3 -3 -3 -3 -3 -3 -3 -3 -3 -3 -3 -3 -2 -2 -2 -2 -2 -2 -2 -2 -2
-1 -2 -2 -2 -2 -3 -3 -3 -3 -3 -4 -4 -4 -4 -4 -4 -4 -4 -4 -4 -4 -4 -4 -4 -4 -4 -4 -4 -4 -4 -4 -4 -4 -3 -3 -3 -3 -3 -3 -3 -3 -3 -3 -3
-2 -3 -3 -3 -3 -3 -4 -4 -4 -4 -4 -4 -5 -5 -5 -5 -5 -5 -5 -5 -5 -5 -5 -5 -5 -4 -4 -4 -4 -4 -4 -4 -4 -4 -3 -3 -3 -3 -3 -4 -3 -3 -3 -3
-3 -3 -3 -4 -4 -4 -4 -5 -5 -5 -5 -5 -5 -5 -5 -5 -6 -6 -6 -6 -5 -6 -6 -6 -5 -5 -5 -5 -5 -4 -4 -4 -4 -4 -4 -4 -4 -4 -4 -4 -4 -4 -4 -4
-4 -4 -4 -4 -4 -5 -5 -5 -5 -5 -5 -6 -6 -6 -6 -6 -6 -6 -6 -6 -6 -6 -6 -6 -6 -6 -6 -5 -5 -5 -5 -5 -5 -5 -5 -5 -4 -4 -4 -4 -4 -4 -4 -4
-4 -4 -5 -5 -5 -5 -5 -6 -6 -6 -6 -6 -6 -6 -7 -7 -7 -7 -7 -7 -7 -7 -7 -7 -6 -6 -6 -6 -6 -6 -6 -5 -5 -5 -5 -5 -5 -5 -5 -5 -5 -5 -4 -4
-5 -5 -5 -5 -6 -6 -6 -6 -6 -6 -7 -7 -7 -7 -7 -7 -7 -7 -7 -7 -7 -7 -7 -7 -7 -7 -6 -6 -6 -6 -6 -6 -6 -6 -6 -6 -6 -5 -5 -5 -5 -5 -5 -5
-5 -6 -6 -6 -6 -7 -7 -7 -7 -7 -7 -7 -7 -8 -8 -8 -8 -8 -8 -8 -8 -8 -8 -7 -7 -7 -7 -7 -7 -7 -7 -7 -7 -6 -6 -6 -6 -6 -6 -5 -5 -5 -5 -5
-6 -6 -7 -7 -7 -7 -7 -8 -8 -8 -8 -8 -8 -8 -8 -8 -8 -8 -8 -8 -8 -8 -8 -8 -8 -7 -7 -7 -7 -7 -7 -7 -7 -7 -6 -6 -6 -6 -6 -6 -6 -6 -6 -6
-7 -7 -7 -7 -8 -8 -8 -8 -8 -8 -8 -8 -9 -8 -8 -8 -8 -8 -8 -8 -8 -8 -8 -8 -8 -8 -8 -8 -8 -8 -8 -7 -7 -7 -7 -7 -7 -7 -6 -6 -6 -6 -6 -6
Wind_Speed
15 15 15 16 16 14 16 15 16 19 21 19 14 12 11 11 11 10 9 8 7 6 6 5 5 5 5 5 5 4 4 4 4 4 5 4 5 5 6 6 7 7 8 8
14 15 16 19 18 18 19 19 20 21 24 17 14 11 11 10 10 10 9 8 7 7 6 6 6 6 6 6 5 4 5 5 4 4 4 4 4 4 4 5 5 5 7 8
10 11 14 15 15 18 18 17 17 21 21 14 13 12 11 9 8 8 8 7 6 6 6 6 6 5 6 6 5 5 5 6 5 5 5 4 4 4 4 5 4 5 6 6
6 6 12 10 7 12 15 16 14 14 13 11 11 9 8 7 7 7 7 6 5 5 6 6 6 5 5 5 5 5 5 6 6 5 5 4 3 4 4 4 4 4 5 5
5 8 12 9 8 8 10 13 10 11 9 8 7 8 7 5 5 6 6 6 6 5 6 6 7 6 5 5 5 5 6 6 6 5 5 4 4 4 3 3 3 3 3 4
7 8 8 5 3 3 5 9 4 5 6 6 6 7 6 6 7 6 7 6 7 7 7 7 7 6 5 5 5 5 6 6 6 5 5 5 4 4 3 2 2 2 2 3
13 11 10 8 4 1 4 5 3 3 4 5 5 6 6 6 7 6 6 6 6 6 6 7 7 6 5 5 5 5 5 6 6 5 5 4 4 3 2 1 1 2 2 2
9 11 11 5 3 5 5 5 6 6 6 6 6 6 6 6 7 6 6 6 6 6 6 7 6 5 5 5 5 5 5 5 5 5 4 4 4 3 2 1 1 1 1 1
8 9 6 4 5 5 5 6 7 7 7 6 6 7 7 7 7 6 6 6 5 6 7 7 6 5 5 5 5 5 4 4 5 4 4 3 3 3 2 1 1 1 1 2
10 10 9 9 8 8 7 7 6 6 6 6 8 8 7 7 7 6 6 5 5 6 7 7 6 5 5 5 5 4 5 5 4 4 4 4 3 3 2 2 2 2 1 2
14 13 11 10 9 8 7 6 7 7 7 7 8 8 8 8 8 6 5 5 5 5 6 7 7 6 5 5 5 4 5 5 4 4 3 3 3 3 3 3 3 3 2 2
15 10 9 9 6 7 8 8 7 7 7 6 6 8 8 7 6 5 5 4 5 5 5 6 6 6 6 5 4 4 4 4 4 3 3 3 3 4 4 3 4 4 2 2
14 10 10 10 8 7 7 7 6 6 6 6 6 6 6 6 6 5 4 5 5 5 6 6 6 6 6 5 5 5 5 5 4 4 3 3 3 3 4 5 5 4 3 2
9 9 11 8 7 6 6 5 5 5 4 4 5 5 5 5 5 5 5 5 5 6 6 6 6 6 6 6 5 5 5 5 4 4 4 4 3 3 3 3 3 3 3 2
8 7 7 6 5 4 4 4 4 4 4 5 4 5 5 5 6 5 5 5 5 6 6 6 6 6 6 6 5 5 5 4 4 4 4 4 3 3 2 2 2 2 2 2
6 6 6 5 5 4 3 3 4 5 4 5 5 5 5 5 5 5 4 4 5 6 6 6 6 6 5 5 6 5 4 6 6 4 3 3 3 2 2 1 1 2 1 1
5 6 5 5 5 4 4 4 4 5 5 5 5 5 5 5 5 5 4 4 5 5 5 5 5 5 5 5 5 4 4 4 6 4 3 3 2 2 1 1 1 2 2 2
3 3 3 3 3 3 4 3 3 4 4 5 5 4 4 4 5 5 5 5 5 5 5 4 5 5 5 5 4 4 4 4 3 3 3 2 2 2 1 1 1 1 1 1
1 1 1 1 1 2 2 3 3 3 4 4 4 4 4 4 4 5 4 4 5 5 5 5 7 6 5 5 6 3 3 3 3 3 2 3 3 2 1 1 1 1 1 1
1 1 1 1 1 1 2 3 3 3 3 3 3 4 4 4 4 4 4 4 3 3 4 5 5 5 5 5 6 3 3 3 3 2 2 2 2 1 1 1 1 1 1 0
1 1 1 1 2 2 2 2 2 3 3 3 3 3 4 4 4 4 4 4 4 4 4 6 4 4 4 5 6 3 3 3 2 2 2 2 2 2 1 1 1 1 1 1
1 1 1 1 2 2 2 2 2 3 3 4 4 3 3 4 4 4 4 3 4 6 5 3 3 5 6 6 3 3 3 3 2 2 2 2 2 2 1 1 1 1 1 0
1 1 1 1 2 2 3 2 2 2 3 4 4 4 4 4 3 3 4 4 3 6 5 3 5 7 7 4 2 2 3 2 2 2 2 2 2 2 2 2 1 1 0 0
1 1 1 1 1 2 2 3 3 3 3 4 4 4 4 4 3 3 3 5 6 6 4 5 7 7 6 3 2 2 2 2 2 2 2 2 2 2 1 1 1 1 1 1
0 1 1 1 1 2 2 3 3 3 3 3 3 3 3 2 3 3 3 3 5 5 4 5 7 7 4 2 2 2 2 2 2 2 2 2 2 2 2 1 1 1 1 1
1 1 1 2 2 2 2 2 2 3 3 3 3 3 3 2 2 2 2 3 3 5 4 3 4 4 3 2 2 2 2 3 3 2 2 2 2 2 1 1 2 1 1 1
1 1 1 1 2 2 2 2 2 3 3 3 4 3 3 3 2 2 2 2 2 3 3 3 2 2 2 2 2 2 2 2 2 2 2 2 1 1 1 1 1 1 1 1
Wind_Direction
262 273 276 272 268 259 250 250 258 267 272 278 283 292 297 300 304 307 310 317 321 321 321 324 328 327 325 322 324 328 313 292 283 280 264 249 242 240 237 234 234 228 224 224
271 270 272 271 265 260 256 256 258 265 270 273 282 285 289 292 298 303 309 318 325 325 327 328 328 325 329 327 326 333 321 309 302 298 290 268 251 247 242 237 233 228 225 222
271 276 284 266 251 249 250 248 250 258 265 277 283 287 292 298 302 303 306 311 315 322 327 324 320 323 322 315 316 322 316 317 314 306 297 285 272 254 242 238 232 228 222 223
273 282 251 251 245 246 254 257 255 262 271 273 279 289 295 297 302 308 314 316 315 318 317 316 320 321 319 320 323 322 318 317 316 312 304 300 284 265 256 243 231 231 223 218
242 253 268 267 259 254 258 265 259 268 279 292 308 307 298 323 340 340 341 339 332 325 321 323 323 319 319 324 323 320 315 314 314 316 309 303 290 272 261 257 252 242 223 216
235 247 255 257 295 311 292 273 269 272 290 307 319 301 298 342 343 340 337 337 333 326 320 317 314 317 319 321 318 315 316 317 316 317 314 310 299 288 274 259 263 263 242 229
237 250 261 265 275 313 244 265 324 316 306 305 290 278 302 322 325 326 324 322 321 319 316 311 314 319 313 315 311 313 318 317 317 319 316 311 307 305 294 270 264 267 252 251
225 241 250 241 224 218 247 303 313 308 302 295 288 294 304 307 306 306 308 314 319 318 313 314 318 319 312 310 314 321 319 317 319 324 325 326 318 313 308 275 242 246 239 261
219 234 260 254 250 258 279 289 292 293 296 292 288 292 300 301 301 302 306 310 317 315 314 315 319 321 316 316 322 324 323 320 320 322 323 324 319 316 322 304 258 245 223 241
261 259 264 278 284 284 284 287 291 294 293 292 289 293 295 295 295 296 303 311 317 318 316 318 325 329 322 323 328 327 318 314 317 321 323 330 332 327 319 304 281 254 227 236
263 271 278 269 270 281 290 294 295 294 291 291 291 291 291 291 289 293 304 312 315 314 312 317 326 327 328 330 329 320 313 314 319 320 319 327 333 328 313 301 290 274 257 234
261 264 266 273 276 292 294 289 289 291 291 291 294 294 297 295 296 303 311 315 317 313 312 315 317 318 322 328 328 322 317 318 316 316 319 323 328 333 339 329 330 316 295 271
266 274 274 280 284 290 287 288 287 288 290 296 300 301 304 306 309 313 312 313 313 313 311 310 312 316 325 337 334 325 314 312 313 314 315 319 321 322 330 347 355 352 347 325
268 275 274 276 281 290 292 294 294 294 296 301 306 306 304 303 306 309 308 311 315 315 314 314 316 320 331 335 328 318 313 313 312 307 307 308 308 309 310 317 329 342 348 348
265 265 272 286 293 300 306 310 306 302 305 306 306 302 300 298 299 301 307 316 317 312 312 316 317 321 332 333 327 319 317 314 313 310 310 307 306 307 307 320 323 320 337 350
271 274 277 282 287 296 306 303 295 292 298 302 302 304 303 298 297 301 308 313 308 303 307 310 310 315 324 325 322 318 315 314 316 313 312 311 311 310 315 327 322 310 310 322
260 264 266 276 281 289 292 294 294 298 303 303 302 308 308 305 303 303 306 307 299 295 300 303 308 317 319 320 318 312 312 315 318 316 309 306 309 311 312 306 308 312 305 299
249 259 270 276 277 287 300 309 310 308 304 306 309 305 300 298 297 301 305 310 309 309 310 310 316 320 321 323 320 310 309 309 310 306 306 311 319 320 316 315 322 312 305 315
305 302 308 308 313 311 310 312 311 311 314 314 306 298 294 294 298 299 303 306 306 308 315 321 325 328 323 323 324 311 310 310 311 312 314 318 326 327 324 318 315 304 294 328
17 9 10 13 14 343 324 325 328 328 326 320 313 310 308 308 307 303 302 296 299 304 309 319 323 321 322 320 325 319 315 312 313 317 321 316 309 310 313 308 311 313 326 11
39 34 34 35 17 4 354 347 340 330 327 325 313 305 304 307 308 306 304 302 314 325 325 327 332 325 323 325 329 327 320 317 320 318 316 315 317 318 320 324 329 330 340 19
38 41 29 25 18 359 356 359 350 334 327 323 320 318 312 306 305 303 295 293 306 320 328 319 319 319 326 329 328 325 319 319 320 324 327 325 323 318 322 326 326 327 346 43
33 33 24 14 358 339 342 346 338 322 310 308 309 308 301 296 296 297 302 311 315 319 326 313 315 321 329 337 331 325 325 327 328 329 327 324 318 315 316 320 320 323 333 115
31 23 5 354 351 338 321 319 318 308 296 294 292 290 289 295 300 294 292 307 319 320 323 318 324 329 336 343 335 335 339 338 333 335 334 332 333 334 337 337 342 2 70 94
4 353 354 342 320 303 304 312 312 309 306 304 302 302 297 288 289 301 307 306 315 322 321 321 329 334 340 338 338 341 341 339 341 346 348 348 349 354 0 5 12 15 55 81
276 284 278 273 279 290 295 299 301 306 312 313 315 314 312 309 305 309 314 316 316 324 326 318 322 333 344 344 346 345 340 336 341 350 352 354 356 357 4 19 22 19 53 86
277 283 284 291 301 302 299 298 297 299 300 302 307 312 314 316 319 321 321 324 322 321 320 321 327 335 340 343 345 344 342 342 345 346 351 357 357 356 7 12 13 30 77 106
Height
1435 1431 1430 1428 1427 1427 1427 1425 1424 1412 1406 1398 1396 1395 1393 1391 1389 1387 1385 1383 1381 1379 1377 1375 1373 1371 1369 1367 1365 1363 1362 1361 1360 1360 1360 1359 1360 1361 1362 1362 1364 1365 1367 1369
1433 1428 1425 1421 1418 1417 1415 1413 1410 1405 1398 1392 1392 1391 1389 1388 1386 1384 1382 1380 1378 1376 1374 1372 1370 1368 1365 1363 1361 1360 1358 1356 1355 1355 1354 1354 1354 1354 1355 1356 1357 1358 1360 1361
1432 1426 1423 1418 1409 1407 1404 1400 1400 1397 1390 1388 1387 1386 1385 1383 1382 1381 1379 1377 1375 1373 1372 1370 1367 1365 1362 1360 1358 1356 1354 1352 1351 1350 1349 1348 1348 1348 1349 1349 1351 1351 1353 1354
1432 1430 1428 1406 1394 1393 1392 1389 1389 1386 1383 1384 1383 1381 1381 1380 1379 1377 1375 1374 1372 1370 1369 1366 1364 1361 1359 1356 1354 1352 1351 1349 1348 1346 1344 1343 1343 1343 1343 1344 1344 1345 1346 1347
1430 1426 1411 1397 1391 1389 1388 1385 1383 1382 1380 1380 1379 1378 1377 1377 1376 1375 1373 1371 1369 1367 1365 1363 1360 1358 1355 1353 1351 1349 1347 1345 1344 1342 1340 1339 1338 1338 1338 1338 1338 1339 1340 1341
1424 1421 1410 1392 1385 1383 1385 1385 1380 1378 1378 1378 1378 1380 1377 1375 1373 1372 1370 1368 1366 1364 1361 1359 1357 1354 1352 1349 1347 1345 1344 1342 1340 1338 1337 1335 1334 1334 1333 1333 1333 1334 1335 1336
1416 1412 1399 1387 1383 1383 1392 1386 1379 1377 1377 1377 1377 1377 1375 1373 1371 1369 1367 1365 1363 1360 1358 1355 1353 1350 1348 1345 1344 1342 1340 1338 1336 1335 1333 1331 1330 1330 1329 1329 1329 1329 1330 1330
1408 1407 1397 1382 1381 1383 1381 1378 1377 1376 1375 1375 1373 1372 1370 1369 1368 1366 1363 1361 1359 1356 1353 1351 1349 1346 1344 1342 1340 1338 1336 1334 1332 1331 1329 1328 1326 1326 1325 1325 1325 1325 1325 1326
1392 1388 1379 1377 1376 1376 1375 1375 1374 1373 1372 1371 1369 1368 1366 1365 1363 1361 1359 1357 1354 1352 1349 1346 1345 1342 1340 1338 1336 1334 1332 1330 1328 1327 1325 1324 1323 1322 1322 1321 1321 1321 1321 1321
1381 1375 1374 1373 1373 1373 1372 1371 1370 1369 1368 1367 1366 1364 1362 1361 1359 1357 1355 1353 1350 1347 1344 1342 1340 1338 1337 1335 1332 1330 1328 1326 1324 1322 1321 1320 1320 1319 1319 1318 1318 1317 1317 1317
1375 1372 1371 1369 1369 1369 1368 1367 1366 1365 1365 1363 1361 1359 1358 1356 1354 1352 1350 1348 1346 1343 1341 1338 1336 1334 1333 1331 1329 1327 1325 1322 1321 1319 1318 1317 1316 1316 1316 1315 1315 1315 1314 1314
1369 1367 1367 1364 1364 1364 1363 1362 1362 1361 1359 1358 1357 1355 1354 1351 1350 1348 1346 1344 1342 1339 1337 1335 1332 1330 1329 1327 1325 1323 1321 1319 1317 1316 1314 1314 1313 1312 1312 1312 1311 1311 1311 1312
1361 1361 1360 1359 1359 1359 1358 1357 1356 1356 1354 1353 1352 1351 1349 1347 1345 1343 1341 1340 1338 1335 1333 1331 1329 1327 1325 1323 1321 1319 1317 1315 1314 1313 1312 1311 1310 1308 1307 1307 1307 1308 1308 1308
1356 1356 1354 1354 1354 1353 1353 1352 1351 1350 1349 1348 1347 1346 1345 1343 1341 1339 1337 1336 1334 1331 1329 1327 1325 1323 1322 1320 1318 1316 1314 1312 1311 1310 1309 1308 1306 1306 1305 1304 1303 1303 1303 1303
1350 1350 1350 1349 1349 1348 1348 1347 1346 1345 1344 1344 1343 1342 1340 1338 1336 1335 1333 1332 1330 1328 1325 1323 1321 1319 1318 1316 1314 1312 1311 1309 1308 1307 1306 1304 1304 1303 1302 1301 1301 1300 1299 1300
1345 1345 1345 1344 1344 1344 1343 1343 1342 1341 1340 1339 1338 1337 1335 1334 1332 1331 1330 1328 1326 1324 1322 1320 1318 1316 1315 1313 1311 1309 1308 1306 1305 1304 1302 1301 1301 1300 1300 1299 1298 1298 1297 1297
1340 1339 1340 1340 1340 1340 1339 1339 1338 1337 1336 1335 1334 1332 1331 1329 1328 1326 1325 1324 1322 1321 1319 1317 1315 1313 1311 1310 1308 1306 1305 1303 1302 1301 1299 1299 1298 1297 1297 1297 1296 1296 1296 1296
1335 1336 1336 1336 1336 1336 1335 1335 1334 1333 1332 1331 1330 1328 1327 1325 1324 1322 1321 1320 1318 1317 1316 1314 1312 1310 1308 1307 1306 1304 1302 1301 1299 1298 1297 1296 1296 1295 1295 1294 1294 1294 1294 1294
1331 1331 1332 1332 1332 1332 1331 1331 1330 1329 1328 1327 1326 1325 1324 1322 1321 1319 1318 1316 1315 1313 1312 1311 1309 1307 1306 1304 1303 1301 1300 1298 1297 1296 1295 1294 1294 1293 1293 1292 1292 1292 1292 1292
1328 1329 1329 1328 1328 1328 1328 1327 1326 1325 1325 1324 1323 1322 1320 1319 1318 1316 1315 1314 1313 1311 1310 1308 1306 1304 1303 1301 1300 1298 1297 1296 1295 1294 1293 1292 1292 1291 1291 1291 1290 1290 1290 1290
1326 1326 1326 1326 1325 1325 1325 1324 1323 1322 1322 1321 1320 1319 1317 1316 1315 1314 1312 1310 1310 1309 1307 1305 1304 1302 1300 1299 1298 1296 1295 1294 1293 1292 1291 1290 1290 1290 1289 1289 1289 1289 1289 1289
1324 1324 1324 1324 1323 1323 1322 1322 1321 1320 1319 1318 1317 1316 1315 1313 1312 1311 1310 1309 1307 1306 1304 1303 1301 1300 1298 1297 1295 1294 1293 1292 1291 1290 1289 1289 1288 1288 1288 1288 1287 1287 1287 1288
1323 1323 1322 1322 1321 1320 1320 1319 1318 1317 1316 1315 1314 1313 1312 1311 1310 1308 1307 1306 1305 1304 1302 1300 1299 1297 1296 1295 1293 1292 1291 1290 1289 1288 1288 1287 1287 1287 1286 1286 1286 1286 1286 1286
1321 1321 1320 1320 1319 1318 1317 1316 1316 1315 1314 1313 1312 1311 1310 1308 1307 1306 1305 1304 1302 1301 1299 1298 1297 1295 1294 1293 1291 1290 1289 1288 1288 1287 1286 1286 1286 1285 1285 1285 1285 1285 1285 1285
1319 1319 1318 1317 1317 1316 1315 1314 1313 1312 1311 1310 1309 1308 1307 1306 1305 1303 1302 1301 1300 1299 1297 1296 1295 1293 1292 1291 1290 1289 1288 1287 1286 1286 1285 1285 1284 1284 1284 1284 1284 1284 1284 1284
1317 1316 1316 1315 1315 1314 1313 1312 1311 1309 1308 1307 1306 1305 1304 1303 1302 1301 1300 1299 1298 1297 1295 1294 1293 1291 1290 1289 1288 1287 1286 1286 1285 1285 1284 1284 1283 1283 1283 1283 1283 1283 1283 1283
1314 1314 1313 1312 1312 1311 1310 1309 1308 1307 1306 1305 1303 1303 1302 1301 1300 1299 1298 1297 1296 1295 1294 1292 1291 1290 1289 1288 1287 1286 1286 1285 1284 1284 1283 1283 1282 1282 1282 1282 1282 1282 1282 1283